CZ-6A DEB

Satellite information

Favourite Embed

Satellite Type and Status

DEBRISIN ORBIT

Key statistics

Satellite CZ-6A DEB at a glance.

Uptime

277

Days in orbit

Revolutions

≈ 14.2

Per day

Orbit

LEO

Low Earth Orbit

Inclination

89.1

Latest

Satellite identification and parameters

Extended collection of information and parameters for CZ-6A DEB.

Object identification

Identified? True

Debris? True

Object name: CZ-6A DEB

International designator: 2024-140PH

Object number (NORAD): 61115

Object ID (CCSDS): 61115

Country: PEOPLES REPUBLIC OF CHINA (PRC)

Current information (Y/N): Y

RCS size: SMALL

Orbital parameters

Period: 101.102 minutes

Inclination: 89.1328 deg

SMA: 7188.965 km

Apoapsis: 872.245 km

Periapsis: 749.416 km

RAAN: 324.2505 deg

Eccentricy: 0.0085429

Argument of periapsis: 112.031 deg

Mean anomaly: 248.9985 deg

Mean motion: 14.24305628 rev/day

Mean motion (dot): 0.0000375 rev/day2

B* drag term: 0.0015583 1/REarth

Two-line elements (TLE)

Creation date: May 9, 2025, 2:16 p.m.

Reference frame: TEME

Reference center: EARTH

Epoch: May 9, 2025, 12:50 p.m. UTC

TLE line 0: 0 CZ-6A DEB

TLE line 1: 1 61115U 24140PH 25129.53506125 .00003750 00000-0 15583-2 0 9990

TLE line 2: 2 61115 89.1328 324.2505 0085429 112.0310 248.9985 14.24305628 37239

Live tracking on map

Real-time ground track for satellite CZ-6A DEB.

In-orbit conjunctions

A list of the most updated potential collisions computed for object CZ-6A DEB.

Target Orbit TCA Probability of collision Miss distance Type
DELTA 1 DEB SSO 2025-01-27 21:16:06 0.0001021724 514.0 (m) DEBRIS
FENGYUN 1C DEB SSO 2024-10-31 08:55:53 0.0003989404 276.0 (m) DEBRIS
SAFIR 2 SSO 2024-10-29 12:19:13 0.0003669298 453.0 (m) PAYLOAD

Associated space launch

18 Low Earth Orbit communication satellites with Ku, Q and V band payloads for the G60 constellation operated by Shanghai Spacecom Satellite Technology (SSST) with funding backed by the Shanghai local government. Initial constellation will consist of 1296 satellites by 2027 with long term plans to expand it to 12000 satellites.

CZ-6A DEB was lifted into orbit during the mission ‘Long March 6A | G60 Polar Group 01’, on board a Long March 6A space rocket.

The launch took place on Aug. 6, 2024, 6:42 a.m. from Launch Complex 9A.

For more information about the launch, click the button.

Launch to space Long March 6A | G60 Polar Group 01
Long March 6A | G60 Polar Group 01

Agency: N/A

Status: Launch Successful

Launch date: Aug. 6, 2024, 6:42 a.m. UTC

Rocket: Long March 6A

Launch pad: Launch Complex 9A

Location: Taiyuan Satellite Launch Center, People's Republic of China

...

Latest news about this satellite

News about space launch
Brightness of first Chinese broadband constellation satellites alarms astronomers

The first satellites of a Chinese broadband constellation are significantly brighter than those of Western systems, posing a new challenge for astronomers.

News about space launch
Chinese rocket stage breaks up into cloud of more than 700 pieces of space debris

HELSINKI — A Chinese Long March 6A rocket’s upper stage has fragmented into a cloud of over 700 pieces of space debris, adding to concerns about long-term orbital safety. China […]

News about space launch
China's Thousand Sails Megaconstellation Kicks Off with Dangerous Debris Field

China's Thousand Sails Megaconstellation Kicks Off with Dangerous Debris Field


Newsletter sign-up

Weekly statistics, charts and insights to help you stay on top of the space industry.